FW1417 Weather Reports


Display with metric or nautical units.
time (UTC)temp
F
wind
direction
speed
MPH
gust
MPH
rain 1hr
in
rain 24hr
in
rain mn
in
humidity
%
barometer
mb
20260905114227 71 20 2.0 9.0 0.00 0.00 0.00 67 1010.3
20260905113727 71 17 4.0 9.0 0.00 0.00 0.00 67 1010.2
20260905113226 71 24 3.0 7.0 0.00 0.00 0.00 67 1010.1
20260905112727 70 309 2.0 3.0 0.00 0.00 0.00 67 1010.0
20260905111726 70 16 2.0 5.0 0.00 0.00 0.00 68 1009.9
20260905111227 70 302 3.0 7.0 0.00 0.00 0.00 68 1009.8
20260905110726 70 351 4.0 7.0 0.00 0.00 0.00 68 1009.7
20260905110226 70 328 3.0 7.0 0.00 0.00 0.00 68 1009.6
20260905105727 70 327 3.0 7.0 0.00 0.00 0.00 67 1009.5
20260905105226 70 319 3.0 7.0 0.00 0.00 0.00 67 1009.6
20260905104726 70 10 3.0 7.0 0.00 0.00 0.00 67 1009.5
20260905104226 70 331 3.0 7.0 0.00 0.00 0.00 66 1009.5
20260905103726 71 290 1.0 7.0 0.00 0.00 0.00 66 1009.4
20260905102726 71 319 2.0 5.0 0.00 0.00 0.00 66 1009.3
20260905102226 71 14 2.0 7.0 0.00 0.00 0.00 66 1009.2
20260905101726 71 341 2.0 7.0 0.00 0.00 0.00 66 1009.3
20260905101226 71 355 3.0 8.0 0.00 0.00 0.00 65 1009.3
20260905100726 71 323 3.0 8.0 0.00 0.00 0.00 65 1009.4
20260905100226 71 9 2.0 8.0 0.00 0.00 0.00 65 1009.3
20260905095726 71 323 3.0 8.0 0.00 0.00 0.00 64 1009.4
20260905095226 72 344 2.0 6.0 0.00 0.00 0.00 64 1009.4
20260905094726 72 5 1.0 7.0 0.00 0.00 0.00 64 1009.3
20260905094226 72 351 2.0 9.0 0.00 0.00 0.00 64 1009.4
20260905093726 72 322 5.0 9.0 0.00 0.00 0.00 64 1009.3
20260905093226 72 5 5.0 9.0 0.00 0.00 0.00 63 1009.2
20260905092726 72 355 2.0 9.0 0.00 0.00 0.00 63 1009.2
20260905091726 72 355 4.0 9.0 0.00 0.00 0.00 63 1009.2
20260905091226 73 20 2.0 7.0 0.00 0.00 0.00 63 1009.0
20260905090726 73 347 3.0 7.0 0.00 0.00 0.00 63 1009.1
20260905090226 73 309 3.0 8.0 0.00 0.00 0.00 62 1009.1
20260905085726 73 304 4.0 8.0 0.00 0.00 0.00 62 1009.1
20260905085226 73 327 4.0 8.0 0.00 0.00 0.00 62 1009.1
20260905084726 73 281 3.0 8.0 0.00 0.00 0.00 62 1009.1
20260905084226 73 5 5.0 9.0 0.00 0.00 0.00 61 1009.1
20260905083726 73 311 4.0 9.0 0.00 0.00 0.00 61 1009.1
20260905083226 73 335 4.0 9.0 0.00 0.00 0.00 61 1009.2
20260905082726 74 339 3.0 8.0 0.00 0.00 0.00 61 1009.1
20260905081726 74 14 5.0 9.0 0.00 0.00 0.00 60 1009.1
20260905081226 74 278 2.0 12.0 0.00 0.00 0.00 60 1009.1
20260905080725 74 311 5.0 12.0 0.00 0.00 0.00 60 1009.2
20260905080225 74 348 4.0 10.0 0.00 0.00 0.00 60 1009.1
20260905075227 74 292 5.0 10.0 0.00 0.00 0.00 59 1009.1
20260905074726 74 348 5.0 8.0 0.00 0.00 0.00 59 1009.2
20260905073226 75 328 3.0 8.0 0.00 0.00 0.00 59 1009.2
20260905072726 75 282 3.0 8.0 0.00 0.00 0.00 59 1009.1
20260905072226 75 313 3.0 8.0 0.00 0.00 0.00 58 1009.2
20260905071726 75 260 3.0 8.0 0.00 0.00 0.00 59 1009.1
20260905071226 75 0 3.0 8.0 0.00 0.00 0.00 59 1009.2
20260905070725 75 306 4.0 8.0 0.00 0.00 0.00 59 1009.1
20260905070225 75 23 3.0 8.0 0.00 0.00 0.00 59 1009.1
20260905065726 75 18 3.0 7.0 0.00 0.00 0.00 59 1009.1
20260905065226 75 27 3.0 7.0 0.00 0.00 0.00 59 1009.2
20260905064726 75 338 3.0 7.0 0.00 0.00 0.00 59 1009.0
20260905064226 75 338 4.0 10.0 0.00 0.01 0.00 59 1009.0
20260905063725 75 318 3.0 10.0 0.00 0.01 0.00 59 1009.2
20260905063225 75 36 2.0 8.0 0.00 0.01 0.00 60 1009.1
20260905062726 75 340 3.0 9.0 0.00 0.05 0.00 60 1009.3
20260905061726 75 277 2.0 5.0 0.00 0.05 0.00 61 1009.4
20260905061226 75 338 1.0 5.0 0.00 0.05 0.00 61 1009.4
20260905060726 76 312 2.0 5.0 0.00 0.05 0.00 61 1009.5
20260905060226 76 344 2.0 5.0 0.00 0.05 0.00 61 1009.4
20260905055726 76 303 3.0 6.0 0.00 0.05 0.00 60 1009.5
20260905055226 76 22 1.0 6.0 0.00 0.05 0.00 60 1009.5
20260905054726 76 0 1.0 3.0 0.00 0.05 0.00 61 1009.6
20260905053726 76 308 2.0 5.0 0.00 0.05 0.00 60 1009.8
20260905053226 76 34 2.0 8.0 0.00 0.05 0.00 60 1009.9
20260905052726 76 331 3.0 8.0 0.00 0.05 0.00 60 1009.8
20260905052226 76 347 3.0 8.0 0.00 0.05 0.00 61 1009.8
20260905051725 76 321 2.0 5.0 0.00 0.05 0.00 61 1009.9
20260905051226 76 344 3.0 7.0 0.00 0.05 0.00 61 1009.9
20260905050225 76 30 3.0 9.0 0.00 0.05 0.00 61 1009.9
20260905045725 76 17 4.0 12.0 0.00 0.05 0.00 61 1009.9
20260905045225 76 9 2.0 12.0 0.00 0.05 0.00 61 1010.0
20260905044725 76 330 3.0 8.0 0.00 0.05 0.00 61 1010.0
20260905044225 76 319 3.0 8.0 0.00 0.05 0.00 61 1010.1
20260905043725 76 15 3.0 7.0 0.00 0.05 0.00 60 1010.2
20260905043225 76 9 3.0 7.0 0.00 0.05 0.00 60 1010.1
20260905042728 77 19 3.0 7.0 0.00 0.05 0.00 60 1010.1
20260905042228 77 347 4.0 7.0 0.00 0.05 0.00 60 1010.2
20260905041228 77 351 1.0 9.0 0.00 0.05 0.00 60 1010.1
20260905040728 77 9 3.0 9.0 0.00 0.05 0.00 60 1010.3
20260905040227 77 297 2.0 8.0 0.00 0.05 0.00 60 1010.2
20260905035728 77 312 4.0 8.0 0.00 0.05 0.05 59 1010.2
20260905035228 77 269 3.0 7.0 0.00 0.05 0.05 59 1010.2
20260905034728 77 9 3.0 7.0 0.00 0.05 0.05 59 1010.2
20260905034228 78 302 3.0 8.0 0.00 0.05 0.05 59 1010.2
20260905033727 78 337 3.0 8.0 0.00 0.05 0.05 59 1010.0
20260905033227 78 339 3.0 8.0 0.00 0.05 0.05 59 1010.0
20260905032727 78 351 2.0 8.0 0.00 0.05 0.05 59 1010.0
20260905032228 78 0 2.0 5.0 0.00 0.05 0.05 59 1009.9
20260905031728 78 336 1.0 7.0 0.00 0.05 0.05 59 1009.9
20260905031228 78 331 3.0 8.0 0.00 0.05 0.05 59 1009.9
20260905030728 78 272 3.0 8.0 0.00 0.05 0.05 59 1010.1
20260905025728 78 330 2.0 8.0 0.00 0.05 0.05 58 1010.0
20260905025228 78 315 2.0 7.0 0.00 0.05 0.05 58 1010.0
20260905024728 78 263 1.0 3.0 0.00 0.05 0.05 58 1010.0
20260905024228 78 340 2.0 3.0 0.00 0.05 0.05 58 1010.0
20260905023728 78 329 1.0 3.0 0.00 0.05 0.05 58 1009.9
20260905023228 78 294 1.0 3.0 0.00 0.05 0.05 58 1010.0
20260905022728 79 291 1.0 6.0 0.00 0.05 0.05 58 1010.0
20260905022229 79 331 2.0 6.0 0.00 0.05 0.05 58 1010.1
20260905020728 79 322 2.0 7.0 0.00 0.05 0.05 57 1010.1
20260905020228 79 320 1.0 3.0 0.00 0.05 0.05 57 1010.1
20260905014728 79 323 3.0 8.0 0.00 0.05 0.05 56 1010.1
20260905014228 80 274 2.0 5.0 0.00 0.05 0.05 56 1010.1
20260905013728 80 286 2.0 6.0 0.00 0.05 0.05 56 1010.1
20260905013228 80 296 1.0 8.0 0.00 0.05 0.05 56 1010.2
20260905012728 80 295 2.0 8.0 0.00 0.05 0.05 56 1010.2
20260905012228 80 300 2.0 7.0 0.00 0.05 0.05 55 1010.2
20260905011728 80 296 1.0 6.0 0.00 0.05 0.05 55 1010.2
20260905011228 80 18 3.0 7.0 0.00 0.05 0.05 55 1010.1
20260905010728 80 319 3.0 7.0 0.00 0.05 0.05 54 1010.1
20260905010229 80 294 2.0 5.0 0.00 0.05 0.05 54 1010.0
20260905005727 81 342 2.0 6.0 0.00 0.05 0.05 54 1009.9
20260905004728 81 284 3.0 6.0 0.00 0.05 0.05 53 1010.0
20260905004228 81 297 2.0 8.0 0.00 0.05 0.05 53 1010.0
20260905003728 81 329 3.0 8.0 0.00 0.05 0.05 53 1010.0
20260905003227 81 326 1.0 7.0 0.00 0.05 0.05 53 1009.9
20260905002728 81 317 3.0 7.0 0.00 0.05 0.05 52 1009.8
20260905002227 81 317 2.0 5.0 0.00 0.05 0.05 53 1009.8
20260905001728 81 329 1.0 6.0 0.00 0.05 0.05 53 1009.8
20260905000727 81 315 2.0 8.0 0.00 0.05 0.05 52 1009.8
20260904235227 82 338 3.0 8.0 0.00 0.05 0.05 52 1009.6
20260904234727 82 299 2.0 5.0 0.00 0.05 0.05 52 1009.6
20260904233727 82 287 3.0 6.0 0.00 0.05 0.05 52 1009.7
20260904233227 82 9 2.0 7.0 0.00 0.05 0.05 51 1009.8
20260904232727 83 242 2.0 7.0 0.00 0.05 0.05 51 1009.7
20260904232228 83 271 2.0 7.0 0.00 0.05 0.05 51 1009.6
20260904231727 83 317 3.0 7.0 0.00 0.05 0.05 50 1009.6
20260904231227 83 269 2.0 6.0 0.00 0.05 0.05 50 1009.7
20260904230728 84 304 3.0 9.0 0.00 0.05 0.05 50 1009.7
20260904225227 84 294 4.0 10.0 0.00 0.05 0.05 49 1009.6
20260904224727 85 328 2.0 10.0 0.00 0.05 0.05 49 1009.6
20260904224228 85 281 1.0 9.0 0.00 0.05 0.05 49 1009.6
20260904223727 85 238 2.0 9.0 0.00 0.05 0.05 48 1009.7
20260904223227 85 310 3.0 9.0 0.00 0.05 0.05 48 1009.7
20260904222228 85 269 4.0 9.0 0.00 0.05 0.05 47 1009.9
20260904221227 85 22 5.0 12.0 0.00 0.05 0.05 47 1009.6
20260904220728 85 252 5.0 12.0 0.00 0.05 0.05 47 1009.6
20260904220227 85 310 3.0 12.0 0.00 0.05 0.05 47 1009.6
20260904215727 85 232 4.0 12.0 0.00 0.05 0.05 47 1009.6
20260904215227 86 249 5.0 14.0 0.00 0.05 0.05 46 1009.5
20260904214728 86 298 3.0 14.0 0.00 0.05 0.05 46 1009.6
20260904214227 86 254 5.0 12.0 0.00 0.05 0.05 46 1009.4
20260904213727 86 201 1.0 14.0 0.00 0.05 0.05 47 1009.4
20260904213227 86 272 5.0 14.0 0.00 0.05 0.05 46 1009.5
20260904212727 86 321 6.0 14.0 0.00 0.05 0.05 46 1009.3
20260904212227 86 340 5.0 12.0 0.00 0.05 0.05 46 1009.3
20260904211727 86 207 5.0 10.0 0.00 0.05 0.05 46 1009.2
20260904211227 86 272 3.0 12.0 0.00 0.05 0.05 46 1009.3
20260904210727 86 253 4.0 12.0 0.00 0.05 0.05 46 1009.2
20260904210227 86 338 3.0 12.0 0.00 0.05 0.05 46 1009.4
20260904205728 86 285 5.0 12.0 0.00 0.05 0.05 44 1009.5
20260904205227 87 301 6.0 13.0 0.00 0.05 0.05 44 1009.6
20260904204727 87 323 7.0 13.0 0.00 0.05 0.05 44 1009.6
20260904204227 87 322 3.0 12.0 0.00 0.05 0.05 45 1009.6
20260904203227 87 311 3.0 13.0 0.00 0.05 0.05 44 1009.7
20260904202727 87 267 2.0 13.0 0.00 0.05 0.05 45 1009.7
20260904201727 87 331 4.0 12.0 0.00 0.05 0.05 45 1009.7
20260904200728 88 244 5.0 12.0 0.00 0.05 0.05 44 1009.7
20260904200227 88 351 5.0 12.0 0.00 0.05 0.05 44 1009.8
20260904195727 88 336 5.0 12.0 0.00 0.05 0.05 43 1009.9
20260904195227 88 302 3.0 12.0 0.00 0.05 0.05 44 1009.9
20260904193727 88 325 4.0 14.0 0.00 0.05 0.05 43 1010.1
20260904193227 88 306 7.0 14.0 0.00 0.05 0.05 42 1010.1
20260904192727 88 350 3.0 12.0 0.00 0.05 0.05 44 1010.1
20260904191227 87 278 6.0 15.0 0.00 0.05 0.05 44 1010.4
20260904185727 88 238 6.0 15.0 0.00 0.05 0.05 43 1010.5
20260904185227 88 235 4.0 14.0 0.00 0.05 0.05 44 1010.4
20260904184727 88 238 5.0 14.0 0.00 0.05 0.05 44 1010.3
20260904184226 88 351 5.0 16.0 0.00 0.05 0.05 44 1010.3
20260904183728 88 9 5.0 18.0 0.00 0.05 0.05 45 1010.4
20260904183226 88 250 6.0 18.0 0.00 0.05 0.05 44 1010.5
20260904182728 88 246 5.0 18.0 0.00 0.05 0.05 45 1010.4
20260904182227 88 34 5.0 12.0 0.00 0.05 0.05 45 1010.5
20260904181728 89 337 3.0 12.0 0.00 0.05 0.05 45 1010.4
20260904181227 89 305 2.0 12.0 0.00 0.05 0.05 45 1010.3
20260904180727 88 26 4.0 12.0 0.00 0.05 0.05 46 1010.4
20260904175727 88 252 5.0 12.0 0.00 0.05 0.05 46 1010.3
20260904175227 88 355 5.0 13.0 0.00 0.05 0.05 46 1010.4
20260904174727 88 184 7.0 13.0 0.00 0.05 0.05 46 1010.4
20260904174227 87 317 3.0 12.0 0.00 0.05 0.05 47 1010.3
20260904173727 87 315 7.0 13.0 0.00 0.05 0.05 46 1010.4
20260904173227 87 319 6.0 13.0 0.00 0.05 0.05 47 1010.4
20260904172727 87 271 5.0 12.0 0.00 0.05 0.05 47 1010.3
20260904172227 86 53 4.0 10.0 0.00 0.05 0.05 48 1010.4
20260904171727 87 243 5.0 10.0 0.00 0.05 0.05 47 1010.4
20260904171227 87 71 6.0 10.0 0.00 0.05 0.05 48 1010.3
20260904170727 87 0 6.0 13.0 0.00 0.05 0.05 47 1010.5
20260904170228 87 316 6.0 13.0 0.00 0.05 0.05 48 1010.5
20260904165726 88 327 7.0 13.0 0.00 0.05 0.05 47 1010.5
20260904165227 87 307 5.0 12.0 0.00 0.05 0.05 48 1010.4
20260904164727 87 9 6.0 18.0 0.00 0.05 0.05 47 1010.5
20260904164228 87 281 7.0 18.0 0.00 0.05 0.05 48 1010.5
20260904163726 87 303 6.0 15.0 0.00 0.05 0.05 48 1010.4
20260904162726 86 304 3.0 13.0 0.00 0.05 0.05 51 1010.5
20260904162226 86 23 7.0 13.0 0.00 0.05 0.05 50 1010.5
20260904161728 86 339 7.0 14.0 0.00 0.05 0.05 49 1010.5
20260904160726 86 284 7.0 15.0 0.00 0.05 0.05 49 1010.6
20260904160227 86 24 6.0 13.0 0.00 0.05 0.05 50 1010.7
20260904155728 86 27 6.0 18.0 0.00 0.05 0.05 51 1010.7
20260904155227 86 341 9.0 18.0 0.00 0.05 0.05 50 1010.7
20260904154227 85 300 6.0 13.0 0.00 0.05 0.05 51 1010.8
20260904153726 85 0 7.0 15.0 0.00 0.05 0.05 51 1010.8
20260904153227 85 254 6.0 15.0 0.00 0.05 0.05 52 1010.8
20260904151727 85 289 6.0 12.0 0.00 0.05 0.05 52 1010.9
20260904151227 85 331 6.0 12.0 0.00 0.05 0.05 52 1011.0
20260904150727 85 339 6.0 13.0 0.00 0.05 0.05 52 1011.0
20260904150226 85 355 6.0 13.0 0.00 0.05 0.05 53 1011.0
20260904145728 85 0 6.0 13.0 0.00 0.05 0.05 54 1011.0
20260904145226 85 318 5.0 13.0 0.00 0.05 0.05 56 1011.0
20260904144226 85 62 5.0 12.0 0.00 0.05 0.05 58 1010.8
20260904143726 84 355 3.0 12.0 0.00 0.05 0.05 59 1010.9
20260904143227 84 327 3.0 12.0 0.00 0.05 0.05 60 1010.8
20260904142727 84 286 4.0 12.0 0.00 0.05 0.05 61 1010.8
20260904142226 84 284 5.0 10.0 0.00 0.05 0.05 61 1010.8
20260904141726 83 9 4.0 13.0 0.00 0.05 0.05 62 1010.8
20260904141227 83 294 6.0 13.0 0.00 0.05 0.05 62 1010.8
20260904140727 83 342 5.0 12.0 0.00 0.05 0.05 63 1010.7
20260904140226 83 330 6.0 12.0 0.00 0.05 0.05 63 1010.7
20260904135727 83 300 4.0 10.0 0.00 0.05 0.05 64 1010.8
20260904135226 82 332 5.0 13.0 0.00 0.05 0.05 65 1010.8
20260904133226 82 13 5.0 12.0 0.00 0.05 0.05 67 1010.6
20260904132226 81 261 5.0 12.0 0.00 0.05 0.05 68 1010.6
20260904131227 80 313 3.0 10.0 0.00 0.05 0.05 70 1010.7
20260904130726 80 312 3.0 12.0 0.00 0.05 0.05 71 1010.7
20260904130226 79 20 4.0 12.0 0.00 0.05 0.05 72 1010.7
20260904125727 79 38 6.0 12.0 0.00 0.05 0.05 72 1010.7
20260904125226 79 347 5.0 12.0 0.00 0.05 0.05 74 1010.6
20260904124726 79 331 5.0 12.0 0.00 0.05 0.05 75 1010.6
20260904124227 79 242 5.0 12.0 0.00 0.05 0.05 76 1010.6
20260904123728 78 306 5.0 12.0 0.00 0.05 0.05 77 1010.6
20260904122727 78 313 5.0 13.0 0.00 0.05 0.05 79 1010.6
20260904122226 77 312 5.0 13.0 0.00 0.05 0.05 80 1010.5
20260904121226 77 336 3.0 10.0 0.00 0.05 0.05 82 1010.5
20260904120727 77 280 2.0 8.0 0.00 0.05 0.05 83 1010.5
20260904120226 76 314 3.0 8.0 0.00 0.05 0.05 84 1010.5
20260904115726 76 232 3.0 9.0 0.00 0.05 0.05 85 1010.5
20260904115226 76 333 2.0 9.0 0.00 0.05 0.05 85 1010.5